When you browse on this site, cookies collect data to enhance your experience and personalize the content and advertising you see.
Visit our Privacy Policy to learn more. By continuing to use the site, you agree to this use of cookies and data.
  • Em Portugal
  • Lista de países
  • Para 7 dias
  • Temperatura da água
  • Mapas de satélite
  • Mapa do tempo
  • Widgets de tempo
  • user-avatar
    Iniciar Sessão

    Previsão horária em Tomislaw

    Hoje, 21 Fevereiro, Quinta-feira

    Tempo Temperatura Precipitação Vento Pressão Humidade
    00:00 +3°C° 0 mm 3 m/s 751 mmHg 84%
    01:00 +3°C° 0 mm 3 m/s 751 mmHg 86%
    02:00 +3°C° 0 mm 3 m/s 751 mmHg 86%
    03:00 +3°C° 0 mm 3 m/s 751 mmHg 86%
    04:00 +3°C° 0 mm 3 m/s 751 mmHg 86%
    05:00 +3°C° 0 mm 3 m/s 751 mmHg 87%
    06:00 +3°C° 0 mm 3 m/s 751 mmHg 87%
    07:00 +3°C° 0 mm 4 m/s 751 mmHg 88%
    08:00 +4°C° 0 mm 4 m/s 751 mmHg 83%
    09:00 +5°C° 0 mm 5 m/s 751 mmHg 78%
    10:00 +6°C° 0 mm 5 m/s 751 mmHg 73%
    11:00 +6°C° 0.3 mm 5 m/s 751 mmHg 73%
    12:00 +6°C° 0.3 mm 5 m/s 751 mmHg 73%
    13:00 +7°C° 0.3 mm 5 m/s 751 mmHg 73%
    14:00 +7°C° 0 mm 5 m/s 751 mmHg 72%
    15:00 +7°C° 0 mm 5 m/s 750 mmHg 71%
    16:00 +8°C° 0 mm 5 m/s 750 mmHg 70%
    17:00 +7°C° 0.1 mm 5 m/s 750 mmHg 74%
    18:00 +7°C° 0.1 mm 5 m/s 750 mmHg 77%
    19:00 +7°C° 0.1 mm 5 m/s 750 mmHg 80%
    20:00 +7°C° 0.4 mm 5 m/s 750 mmHg 83%
    21:00 +7°C° 0.4 mm 5 m/s 750 mmHg 85%
    22:00 +7°C° 0.4 mm 5 m/s 750 mmHg 87%
    23:00 +7°C° 0.9 mm 5 m/s 750 mmHg 89%

    Amanhã, 22 Fevereiro, Sexta-feira

    Tempo Temperatura Precipitação Vento Pressão Humidade
    00:00 +6°C° 0.9 mm 5 m/s 750 mmHg 90%
    01:00 +6°C° 0.9 mm 5 m/s 750 mmHg 92%
    02:00 +6°C° 0.7 mm 5 m/s 750 mmHg 92%
    03:00 +6°C° 0.7 mm 5 m/s 750 mmHg 92%
    04:00 +6°C° 0.7 mm 5 m/s 751 mmHg 93%
    05:00 +5°C° 0.4 mm 5 m/s 752 mmHg 90%
    06:00 +3°C° 0.4 mm 5 m/s 753 mmHg 88%
    07:00 +2°C° 0.4 mm 6 m/s 754 mmHg 85%
    08:00 +1°C° 0 mm 6 m/s 755 mmHg 82%
    09:00 0°C° 0 mm 5 m/s 756 mmHg 79%
    10:00 -1°C° 0 mm 5 m/s 757 mmHg 76%
    11:00 0°C° 0 mm 5 m/s 758 mmHg 69%
    12:00 0°C° 0 mm 4 m/s 759 mmHg 61%
    13:00 +1°C° 0 mm 4 m/s 760 mmHg 54%
    14:00 +1°C° 0 mm 4 m/s 760 mmHg 53%
    15:00 +2°C° 0 mm 3 m/s 760 mmHg 52%
    16:00 +1°C° 0 mm 3 m/s 761 mmHg 51%
    17:00 0°C° 0 mm 3 m/s 761 mmHg 55%
    18:00 -1°C° 0 mm 2 m/s 762 mmHg 59%
    19:00 -2°C° 0 mm 2 m/s 763 mmHg 63%
    20:00 -2°C° 0 mm 2 m/s 763 mmHg 62%
    21:00 -2°C° 0 mm 2 m/s 763 mmHg 61%
    22:00 -2°C° 0 mm 2 m/s 764 mmHg 59%
    23:00 -3°C° 0 mm 2 m/s 764 mmHg 58%

    Depois de amanhã, 23 Fevereiro, Sábado

    Tempo Temperatura Precipitação Vento Pressão Humidade
    00:00 -3°C° 0 mm 2 m/s 764 mmHg 56%
    01:00 -3°C° 0 mm 2 m/s 764 mmHg 54%
    02:00 -3°C° 0 mm 2 m/s 764 mmHg 54%
    03:00 -3°C° 0 mm 2 m/s 764 mmHg 53%
    04:00 -3°C° 0 mm 2 m/s 764 mmHg 53%
    05:00 -3°C° 0 mm 2 m/s 764 mmHg 53%
    06:00 -4°C° 0 mm 2 m/s 764 mmHg 52%
    07:00 -4°C° 0 mm 2 m/s 764 mmHg 52%
    08:00 -3°C° 0 mm 2 m/s 764 mmHg 46%
    09:00 -2°C° 0 mm 2 m/s 765 mmHg 40%
    10:00 0°C° 0 mm 3 m/s 765 mmHg 34%
    11:00 +1°C° 0 mm 3 m/s 765 mmHg 30%
    12:00 +1°C° 0 mm 3 m/s 765 mmHg 27%
    13:00 +3°C° 0 mm 2 m/s 764 mmHg 24%
    14:00 +3°C° 0 mm 2 m/s 764 mmHg 25%
    15:00 +3°C° 0 mm 2 m/s 764 mmHg 26%
    16:00 +3°C° 0 mm 2 m/s 763 mmHg 27%
    17:00 +2°C° 0 mm 2 m/s 763 mmHg 31%
    18:00 +1°C° 0 mm 2 m/s 763 mmHg 36%
    19:00 -2°C° 0 mm 2 m/s 763 mmHg 40%
    20:00 0°C° 0 mm 1 m/s 763 mmHg 40%
    21:00 0°C° 0 mm 1 m/s 763 mmHg 40%
    22:00 0°C° 0 mm 1 m/s 763 mmHg 40%
    23:00 0°C° 0 mm 1 m/s 763 mmHg 39%

    24 Fevereiro, Domingo

    Tempo Temperatura Precipitação Vento Pressão Humidade
    00:00 0°C° 0 mm 0 m/s 763 mmHg 37%
    01:00 0°C° 0 mm 0 m/s 763 mmHg 36%
    02:00 0°C° 0 mm 0 m/s 762 mmHg 36%
    03:00 0°C° 0 mm 0 m/s 762 mmHg 36%
    04:00 0°C° 0 mm 0 m/s 762 mmHg 35%
    05:00 0°C° 0 mm 0 m/s 762 mmHg 35%
    06:00 0°C° 0 mm 0 m/s 762 mmHg 36%
    07:00 0°C° 0 mm 1 m/s 761 mmHg 36%
    08:00 +2°C° 0 mm 1 m/s 762 mmHg 33%
    09:00 +4°C° 0 mm 1 m/s 762 mmHg 31%
    10:00 +4°C° 0 mm 2 m/s 762 mmHg 28%
    11:00 +5°C° 0 mm 2 m/s 762 mmHg 29%
    12:00 +6°C° 0 mm 2 m/s 761 mmHg 30%
    13:00 +8°C° 0 mm 2 m/s 761 mmHg 30%
    14:00 +7°C° 0 mm 2 m/s 761 mmHg 36%
    15:00 +6°C° 0 mm 2 m/s 761 mmHg 42%
    16:00 +6°C° 0 mm 2 m/s 760 mmHg 48%
    17:00 +5°C° 0 mm 2 m/s 760 mmHg 52%
    18:00 +4°C° 0 mm 2 m/s 760 mmHg 56%
    19:00 +3°C° 0 mm 2 m/s 760 mmHg 60%
    20:00 +3°C° 0 mm 2 m/s 760 mmHg 63%
    21:00 +2°C° 0 mm 2 m/s 760 mmHg 66%
    22:00 +1°C° 0 mm 2 m/s 760 mmHg 69%
    23:00 +1°C° 0 mm 2 m/s 761 mmHg 71%

    25 Fevereiro, Segunda-feira

    Tempo Temperatura Precipitação Vento Pressão Humidade
    00:00 +1°C° 0 mm 2 m/s 761 mmHg 73%
    01:00 +1°C° 0 mm 2 m/s 761 mmHg 75%
    02:00 +1°C° 0 mm 2 m/s 760 mmHg 77%
    03:00 +1°C° 0 mm 2 m/s 760 mmHg 79%
    04:00 -1°C° 0 mm 2 m/s 760 mmHg 81%
    05:00 -1°C° 0 mm 2 m/s 760 mmHg 83%
    06:00 -1°C° 0 mm 2 m/s 760 mmHg 85%
    07:00 -1°C° 0 mm 2 m/s 760 mmHg 87%
    08:00 +1°C° 0 mm 2 m/s 760 mmHg 81%
    09:00 +3°C° 0 mm 2 m/s 761 mmHg 76%
    10:00 +4°C° 0 mm 2 m/s 761 mmHg 70%
    11:00 +6°C° 0 mm 2 m/s 761 mmHg 69%
    12:00 +7°C° 0 mm 2 m/s 761 mmHg 68%
    13:00 +9°C° 0 mm 1 m/s 761 mmHg 67%
    14:00 +9°C° 0 mm 1 m/s 761 mmHg 67%
    15:00 +9°C° 0 mm 1 m/s 761 mmHg 68%
    16:00 +9°C° 0 mm 1 m/s 760 mmHg 68%
    17:00 +8°C° 0 mm 1 m/s 760 mmHg 74%
    18:00 +7°C° 0 mm 1 m/s 760 mmHg 80%
    19:00 +5°C° 0 mm 0 m/s 760 mmHg 86%
    20:00 +4°C° 0 mm 0 m/s 760 mmHg 87%
    21:00 +4°C° 0 mm 0 m/s 760 mmHg 88%
    22:00 +3°C° 0 mm 0 m/s 760 mmHg 89%
    23:00 +3°C° 0 mm 0 m/s 760 mmHg 88%

    26 Fevereiro, Terça-feira

    Tempo Temperatura Precipitação Vento Pressão Humidade
    00:00 +4°C° 0 mm 1 m/s 760 mmHg 88%
    01:00 +4°C° 0 mm 1 m/s 760 mmHg 88%
    02:00 +4°C° 0 mm 1 m/s 759 mmHg 88%
    03:00 +3°C° 0 mm 1 m/s 759 mmHg 88%
    04:00 +3°C° 0 mm 1 m/s 758 mmHg 88%
    05:00 +2°C° 0 mm 2 m/s 758 mmHg 89%
    06:00 +2°C° 0 mm 2 m/s 758 mmHg 90%
    07:00 +2°C° 0 mm 2 m/s 758 mmHg 90%
    08:00 +4°C° 0 mm 2 m/s 758 mmHg 87%
    09:00 +4°C° 0 mm 3 m/s 758 mmHg 83%
    10:00 +5°C° 0 mm 3 m/s 758 mmHg 79%
    11:00 +7°C° 0 mm 4 m/s 757 mmHg 73%
    12:00 +8°C° 0 mm 4 m/s 757 mmHg 67%
    13:00 +11°C° 0 mm 4 m/s 756 mmHg 61%
    14:00 +11°C° 0 mm 4 m/s 756 mmHg 61%
    15:00 +11°C° 0 mm 4 m/s 755 mmHg 61%
    16:00 +11°C° 0 mm 4 m/s 755 mmHg 60%
    17:00 +10°C° 0 mm 4 m/s 755 mmHg 64%
    18:00 +10°C° 0 mm 4 m/s 755 mmHg 67%
    19:00 +8°C° 0 mm 4 m/s 755 mmHg 71%
    20:00 +8°C° 0 mm 3 m/s 755 mmHg 74%
    21:00 +8°C° 0 mm 3 m/s 755 mmHg 78%
    22:00 +7°C° 0 mm 2 m/s 755 mmHg 81%
    23:00 +6°C° 0 mm 2 m/s 755 mmHg 85%
    Mostrar mais